Regional Weather Roundup
Issued by NWS Little Rock, AR

Home | Current Version | Previous Version | Graphics & Text | Print | Product List | Glossary On
Versions: 1 2 3 4 5 6 7 8 9 10 11 12 13 14 15 16 17 18 19 20 21 22 23 24 25 26 27 28 29 30 31 32 33
000
ASUS44 KLZK 011405
RWRLZK

WEATHER ROUNDUP FOR ARKANSAS
NATIONAL WEATHER SERVICE LITTLE ROCK AR
800 AM CST WED MAR 01 2017

NOTE: "FAIR" INDICATES FEW OR NO CLOUDS BELOW 12,000 FEET WITH NO
SIGNIFICANT WEATHER AND/OR OBSTRUCTIONS TO VISIBILITY.

ARZ001-003-010-029-011500-
NORTHWEST ARKANSAS

CITY           SKY/WX    TMP DP  RH WIND       PRES   REMARKS
FAYETTEVILLE   SUNNY     42  36  79 NW12      30.04R
FORT SMITH     SUNNY     48  36  63 W12       30.06R
HARRISON       SUNNY     43  37  79 NW10G20   29.97R
BENTONVILLE    SUNNY     41  36  81 NW7       30.03R
ROGERS         SUNNY     41  35  79 W13G18    30.03R
SILOAM SPGS    SUNNY     41  34  75 NW12      30.05R
HIGHFILL       SUNNY     42  36  79 NW8       30.04R
SPRINGDALE     SUNNY     41  36  81 NW8       30.04R
$$

ARZ004-005-016-011500-
NORTH CENTRAL ARKANSAS

CITY           SKY/WX    TMP DP  RH WIND       PRES   REMARKS
BATESVILLE       N/A    N/A N/A N/A MISG        N/A
FLIPPIN        CLOUDY    46  36  66 NW17      29.94R
MTN HOME       LGT RAIN  46  39  76 NW10G22   29.93R
$$

ARZ040-041-011500-
WEST CENTRAL ARKANSAS

CITY           SKY/WX    TMP DP  RH WIND       PRES   REMARKS
MENA           SUNNY     52  41  66 N7G18     30.03R
MOUNT IDA      SUNNY     54  41  61 VRB6      29.98R
$$

ARZ009-017-025-026-028-011500-
NORTHEAST ARKANSAS

CITY           SKY/WX    TMP DP  RH WIND       PRES   REMARKS
CORNING        FAIR      59  52  77 W20       29.83R
JONESBORO      MOSUNNY   61  49  64 NW18      29.82R
WALNUT RIDGE   SUNNY     57  45  62 W23G30    29.85R
BLYTHEVILLE    MOSUNNY   64  55  72 W15G24    29.81R
NW BLYTHEVILLE PTSUNNY   63  55  77 W13G22    29.79
$$

ARZ022-023-033-042-044-011500-
CENTRAL ARKANSAS

CITY           SKY/WX    TMP DP  RH WIND       PRES   REMARKS
LITTLE ROCK    CLOUDY    61  55  81 NW14G28   29.90R
N LITTLE ROCK    N/A     60  54  79 NW9G20    29.91R
JACKSONVILLE   CLOUDY    61  52  72 NW10G18   29.90R
SEARCY         CLOUDY    58  50  75 NW12      29.90R
HOT SPRINGS    SUNNY     58  47  66 NW10G17   29.95R
RUSSELLVILLE   SUNNY     55  42  61 NW13      29.97R
CLINTON        FAIR      54  41  62 NW8G17    29.94R
$$

ARZ036-011500-
EAST ARKANSAS

CITY           SKY/WX    TMP DP  RH WIND       PRES   REMARKS
WEST MEMPHIS   CLOUDY    62  59  90 VRB6      29.83R
$$

ARZ050-053-066-070-073-011500-
SOUTHWEST ARKANSAS

CITY           SKY/WX    TMP DP  RH WIND       PRES   REMARKS
ARKADELPHIA    FAIR      60  47  61 NW12      29.94R
CAMDEN         MOSUNNY   72  64  78 SW7       29.89R
TEXARKANA      MOSUNNY   59  48  67 NW14      29.97R
EL DORADO      PTSUNNY   72  67  84 SW9       29.91R
DE QUEEN       SUNNY     54  42  64 NW8       30.00R
$$

ARZ056-057-069-011500-
SOUTHEAST ARKANSAS

CITY           SKY/WX    TMP DP  RH WIND       PRES   REMARKS
PINE BLUFF     MOSUNNY   71  65  81 SW13      29.86R
STUTTGART      PTSUNNY   66  54  63 NW23G30   29.88R
MONTICELLO     MOSUNNY   73  66  78 SW9G18    29.88R

$$






USA.gov is the U.S. government's official web portal to all federal, state and local government web resources and services.